Location: Recife
(8.0585°S, 34.8848°W)
Time: 12:47:21
(UTC-03:00)

Tiros 1 - Pass Details

Date: 16 April 2026
Orbit: 618 x 648 km, 48.4° (Epoch: 11 May)

Event Time Altitude Azimuth Distance (km) Brightness Sun altitude
Rises 19:42:51 0° 304° (WNW) 2,944 11.3 -36.6°
Reaches altitude 10° 19:45:20 10° 295° (WNW) 2,039 10.4 -37.2°
Enters shadow 19:46:34 17° 286° (WNW) 1,631 9.8 -37.5°
Maximum altitude 19:49:37 35° 229° (SW) 1,050 - -38.3°
Drops below altitude 10° 19:53:56 10° 163° (SSE) 2,046 - -39.3°
Sets 19:56:26 0° 154° (SSE) 2,956 - -39.9°
